DELTA 1 DEB, 7071

Orbit data source: Space-Track

DELTA 1 DEB, 7071 is space debris in SSO originally from a launch on Tue, 06 Nov 1973 UTC launched from the Air Force Western Test Range (AFWTR). Debris objects in space refer to the collection of defunct objects orbiting the Earth. Examples of debris include non-operational satellites, rocket bodies, and fragments generated from explosions, collisions, or faulty payload assembly.

Loading next visibility...
Identifier
7071, 1973-086BP
Orbit
SSO
Country
Flag of USUS
Related business
Manufacturer
Unknown
Mission
Spacecraft
Bus & Motor
Unknown
Mass
Unknown
Launch date (UTC)
1973-11-06 (52 years ago)
Launch vehicle
Unknown
Launch site
Air Force Western Test Range (AFWTR)
Object type
Payload
Rocket body
Debris
Shape & HBR
Unknown shape, 0.4 m
Radar Cross Section
Medium (>0.1 m² and <1 m²)

Expand to show TLE details & history
Last TLE update: 8 hours ago

TLE from 8 hours ago
0 DELTA 1 DEB
1 07071U 73086BP  25292.93879681  .00000006  00000-0  35445-3 0  9990
2 07071 101.6018 280.7506 0006016 186.6214 229.4899 12.41155052353317
Epoch: 2025-10-19T22:31Z
TLE epoch observation values (Epoch: 2025-10-19T22:31:52.044Z)
Latitude
54.45072°
Longitude
-102.47709°
Altitude
1,513.565 km
Speed
7.112 km/s
True Right ascension
17h 36m 33s
True Declination
54° 18' 13"
Sunlit
Object was in daylight at epoch
Visualization orbit readout
Latitude
Unknown
Longitude
Unknown
Altitude
Unknown
Speed
Unknown
Apparent Right ascension
Unknown
Apparent Declination
Unknown
Sunlit
N/A
Visualization observer readout
Local Sidereal Time
00:58:57
Azimuth
Unknown
Elevation
Unknown
Doppler factor
Unknown
Orbital elements
Apogee altitude
1,504 km
Perigee altitude
1,494.521 km
Semi-major axis
7,877.397 km
Eccentricity
0.0006
Inclination
101.6018°
RAAN
280.7506°
Arg. of periapsis
186.6214°
True anomaly
229.43751°
Mean anomaly
229.4899°
Eccentric anomaly
229.4637°
Mean motion
3.10434 °/min
Orbital period
115.97 mins
BSTAR
0.00035445
Loading maneuver chart data...
Computing Atmospheric mass density...

Documentation

Showing up to 5 results
|